UAE75T YBBN-OMDB

Flight info

Callsign UAE75T
Flight time N/A
Altitude 34000
Route WACKO V250 UNVAT DCT 2456S14730E 23S143E 22S141E 21S139E 19S136E 18S134E 17S132E/N0505F360 16S130E DCT SUNPO DCT ONOXA G326 BLI M766 KIDET/N0496F380 M766 PEBSA/N0489F400 M766 KAT P570 TVM V27 RUVAN V28 DOTAT P570 ITURA M762 VAXAS/N0399F240 M762 MIVEK P574 IMPED
Aircraft A388/J-SADE2E3FGHIJ3J4J5M1RWXY/LB1D1

Departure

Time 2026-05-05 08:14
Airport Brisbane International Airport (YBBN)

Arrival

Time N/A
Airport Dubai International Airport (OMDB)
Time Latitude Longitude Altitude Speed Heading
2026-05-05 07:37 -27.39970 153.11414 27 ft 0 kts 284°
2026-05-05 08:05 -27.39972 153.11420 26 ft 2 kts 284°
2026-05-05 08:05 -27.39975 153.11434 25 ft 2 kts 284°
2026-05-05 08:05 -27.39978 153.11448 26 ft 2 kts 283°
2026-05-05 08:05 -27.39980 153.11462 26 ft 2 kts 278°
2026-05-05 08:06 -27.39980 153.11476 26 ft 2 kts 269°
2026-05-05 08:06 -27.39978 153.11489 25 ft 2 kts 253°
2026-05-05 08:06 -27.39972 153.11502 23 ft 2 kts 240°
2026-05-05 08:06 -27.39965 153.11514 23 ft 2 kts 234°
2026-05-05 08:07 -27.39959 153.11522 24 ft 2 kts 229°
2026-05-05 08:07 -27.39950 153.11532 24 ft 2 kts 220°
2026-05-05 08:07 -27.39940 153.11539 25 ft 2 kts 208°
2026-05-05 08:07 -27.39937 153.11540 25 ft 0 kts 206°
2026-05-05 08:10 -27.39947 153.11534 26 ft 4 kts 206°
2026-05-05 08:10 -27.39981 153.11515 26 ft 7 kts 206°
2026-05-05 08:10 -27.40035 153.11485 26 ft 10 kts 206°
2026-05-05 08:10 -27.40102 153.11448 26 ft 8 kts 206°
2026-05-05 08:11 -27.40162 153.11419 26 ft 10 kts 186°
2026-05-05 08:11 -27.40217 153.11445 26 ft 8 kts 125°
2026-05-05 08:11 -27.40246 153.11509 26 ft 10 kts 117°
2026-05-05 08:11 -27.40278 153.11579 26 ft 7 kts 117°
2026-05-05 08:12 -27.40301 153.11630 26 ft 8 kts 115°
2026-05-05 08:12 -27.40319 153.11695 31 ft 10 kts 97°
2026-05-05 08:12 -27.40315 153.11778 28 ft 11 kts 70°
2026-05-05 08:12 -27.40260 153.11837 28 ft 13 kts 22°
2026-05-05 08:13 -27.40045 153.11954 26 ft 68 kts 26°
2026-05-05 08:13 -27.39417 153.12316 29 ft 130 kts 27°
2026-05-05 08:13 -27.38475 153.12853 35 ft 169 kts 27°
2026-05-05 08:13 -27.37425 153.13502 395 ft 172 kts 35°
2026-05-05 08:14 -27.36573 153.14385 902 ft 168 kts 50°
2026-05-05 08:14 -27.35813 153.15427 1330 ft 172 kts 53°
2026-05-05 08:14 -27.35042 153.16455 1696 ft 179 kts 50°
2026-05-05 08:14 -27.34161 153.17529 1827 ft 196 kts 47°
2026-05-05 08:15 -27.33167 153.18657 1959 ft 209 kts 46°
2026-05-05 08:15 -27.32094 153.19835 2053 ft 221 kts 45°
2026-05-05 08:15 -27.30940 153.21089 2176 ft 241 kts 45°
2026-05-05 08:15 -27.29687 153.22457 2447 ft 259 kts 47°
2026-05-05 08:16 -27.28772 153.24179 3072 ft 257 kts 76°
2026-05-05 08:16 -27.28571 153.26127 3739 ft 256 kts 90°
2026-05-05 08:16 -27.28504 153.28136 4400 ft 258 kts 89°
2026-05-05 08:16 -27.28417 153.30150 5102 ft 259 kts 89°
2026-05-05 08:17 -27.28324 153.32186 5714 ft 262 kts 88°
2026-05-05 08:17 -27.28228 153.34243 6346 ft 265 kts 88°
2026-05-05 08:17 -27.28143 153.36323 6958 ft 267 kts 93°
2026-05-05 08:17 -27.28588 153.38327 7566 ft 266 kts 121°
2026-05-05 08:18 -27.29807 153.39868 8169 ft 266 kts 148°
2026-05-05 08:18 -27.31529 153.40598 8765 ft 268 kts 174°
2026-05-05 08:18 -27.33366 153.40720 9376 ft 270 kts 177°
2026-05-05 08:18 -27.35253 153.40832 9990 ft 272 kts 176°
2026-05-05 08:19 -27.37156 153.40925 10474 ft 277 kts 182°
2026-05-05 08:19 -27.39087 153.40682 10978 ft 282 kts 193°
2026-05-05 08:19 -27.40989 153.40082 11407 ft 290 kts 198°
2026-05-05 08:19 -27.42962 153.39349 11549 ft 306 kts 206°
2026-05-05 08:20 -27.44181 153.38508 11652 ft 316 kts 220°
2026-05-05 08:20 -27.45636 153.36605 11789 ft 330 kts 242°
2026-05-05 08:20 -27.46433 153.33275 12235 ft 339 kts 271°
2026-05-05 08:20 -27.46054 153.30670 12815 ft 339 kts 285°
2026-05-05 08:21 -27.45438 153.28067 13131 ft 347 kts 285°
2026-05-05 08:21 -27.44834 153.25430 13704 ft 348 kts 285°
2026-05-05 08:21 -27.44142 153.22828 14215 ft 348 kts 291°
2026-05-05 08:21 -27.43133 153.20358 14733 ft 347 kts 299°
2026-05-05 08:22 -27.42319 153.18810 15070 ft 347 kts 301°
2026-05-05 08:22 -27.41076 153.16479 15548 ft 348 kts 301°
2026-05-05 08:22 -27.39847 153.14133 16063 ft 348 kts 301°
2026-05-05 08:22 -27.38621 153.11780 16529 ft 349 kts 301°
2026-05-05 08:23 -27.37389 153.09421 17000 ft 350 kts 301°
2026-05-05 08:23 -27.35747 153.06297 17628 ft 350 kts 302°
2026-05-05 08:23 -27.34811 153.04770 17952 ft 351 kts 307°
2026-05-05 08:23 -27.33251 153.02711 18413 ft 351 kts 311°
2026-05-05 08:24 -27.31622 153.00675 18900 ft 348 kts 311°
2026-05-05 08:24 -27.30021 152.98618 19222 ft 351 kts 308°
2026-05-05 08:24 -27.28601 152.96380 19582 ft 352 kts 301°
2026-05-05 08:24 -27.27422 152.93965 19944 ft 353 kts 297°
2026-05-05 08:25 -27.26309 152.91498 20308 ft 355 kts 297°
2026-05-05 08:25 -27.25172 152.89028 20666 ft 356 kts 297°
2026-05-05 08:25 -27.24028 152.86558 21024 ft 357 kts 297°
2026-05-05 08:25 -27.22878 152.84077 21376 ft 358 kts 297°
2026-05-05 08:26 -27.21723 152.81586 21729 ft 360 kts 297°
2026-05-05 08:26 -27.20579 152.79119 22079 ft 362 kts 297°
2026-05-05 08:26 -27.19415 152.76608 22417 ft 364 kts 296°
2026-05-05 08:26 -27.18247 152.74090 22785 ft 365 kts 296°
2026-05-05 08:27 -27.17067 152.71565 23202 ft 365 kts 296°
2026-05-05 08:27 -27.15882 152.69037 24052 ft 367 kts 296°
2026-05-05 08:27 -27.14683 152.66485 23806 ft 369 kts 296°
2026-05-05 08:27 -27.13495 152.63962 24324 ft 365 kts 297°
2026-05-05 08:28 -27.12318 152.61459 24485 ft 369 kts 297°
2026-05-05 08:28 -27.11116 152.58906 24743 ft 371 kts 297°
2026-05-05 08:28 -27.09911 152.56350 25102 ft 370 kts 297°
2026-05-05 08:28 -27.08708 152.53792 25426 ft 371 kts 297°
2026-05-05 08:29 -27.07503 152.51228 25785 ft 371 kts 297°
2026-05-05 08:29 -27.06299 152.48674 26207 ft 370 kts 298°
2026-05-05 08:29 -27.05093 152.46114 26541 ft 372 kts 298°
2026-05-05 08:30 -27.02663 152.40975 27246 ft 374 kts 298°
2026-05-05 08:30 -27.01457 152.38428 27629 ft 375 kts 298°
2026-05-05 08:30 -27.00236 152.35850 28027 ft 375 kts 298°
2026-05-05 08:30 -26.99009 152.33259 28384 ft 377 kts 298°
2026-05-05 08:31 -26.97780 152.30665 28755 ft 378 kts 299°
2026-05-05 08:31 -26.96545 152.28063 29142 ft 379 kts 299°
2026-05-05 08:31 -26.95304 152.25447 29509 ft 380 kts 299°
2026-05-05 08:31 -26.94058 152.22832 29855 ft 382 kts 299°
2026-05-05 08:32 -26.92805 152.20198 30204 ft 383 kts 299°
2026-05-05 08:32 -26.91569 152.17598 30542 ft 384 kts 299°
2026-05-05 08:32 -26.90311 152.14951 30827 ft 386 kts 300°
2026-05-05 08:32 -26.89048 152.12298 31134 ft 388 kts 300°
2026-05-05 08:33 -26.87777 152.09627 31438 ft 389 kts 300°
2026-05-05 08:33 -26.86498 152.06943 31713 ft 391 kts 300°
2026-05-05 08:33 -26.85207 152.04238 31834 ft 397 kts 300°
2026-05-05 08:33 -26.83903 152.01505 32045 ft 400 kts 300°
2026-05-05 08:34 -26.82584 151.98742 32219 ft 405 kts 300°
2026-05-05 08:34 -26.79902 151.93133 32363 ft 419 kts 300°
2026-05-05 08:34 -26.78520 151.90251 32604 ft 422 kts 300°
2026-05-05 08:35 -26.77129 151.87357 32974 ft 422 kts 300°
2026-05-05 08:35 -26.75740 151.84466 33418 ft 421 kts 300°
2026-05-05 08:35 -26.74355 151.81586 33902 ft 419 kts 300°
2026-05-05 08:35 -26.72979 151.78724 34101 ft 417 kts 300°
2026-05-05 08:36 -26.71606 151.75873 34110 ft 415 kts 300°
2026-05-05 08:36 -26.68867 151.70189 34110 ft 415 kts 300°
2026-05-05 08:37 -26.66142 151.64545 34105 ft 415 kts 300°
2026-05-05 08:37 -26.63399 151.58866 34103 ft 415 kts 300°
2026-05-05 08:38 -26.60651 151.53189 34102 ft 415 kts 300°
2026-05-05 08:38 -26.57910 151.47529 34092 ft 414 kts 300°
2026-05-05 08:39 -26.55170 151.41880 34084 ft 413 kts 300°
2026-05-05 08:39 -26.52445 151.36271 34086 ft 413 kts 300°
2026-05-05 08:40 -26.49702 151.30632 34090 ft 414 kts 301°
2026-05-05 08:40 -26.46952 151.24987 34087 ft 414 kts 301°
2026-05-05 08:41 -26.44199 151.19342 34092 ft 414 kts 301°
2026-05-05 08:41 -26.41461 151.13728 34098 ft 415 kts 301°
2026-05-05 08:42 -26.38709 151.08071 34098 ft 415 kts 301°
2026-05-05 08:42 -26.35953 151.02407 34082 ft 416 kts 301°
2026-05-05 08:43 -26.33189 150.96739 34084 ft 417 kts 301°
2026-05-05 08:43 -26.30416 150.91063 34091 ft 417 kts 301°
2026-05-05 08:44 -26.27655 150.85418 34101 ft 418 kts 301°
2026-05-05 08:44 -26.24871 150.79731 34109 ft 418 kts 301°
2026-05-05 08:45 -26.22084 150.74045 34120 ft 418 kts 301°
2026-05-05 08:45 -26.19295 150.68366 34109 ft 418 kts 301°
2026-05-05 08:46 -26.16530 150.62740 34095 ft 417 kts 301°
2026-05-05 08:46 -26.13750 150.57092 34088 ft 416 kts 301°
2026-05-05 08:47 -26.10968 150.51445 34087 ft 416 kts 302°
2026-05-05 08:47 -26.08186 150.45809 34088 ft 415 kts 302°
2026-05-05 08:48 -26.05432 150.40233 34090 ft 414 kts 302°
2026-05-05 08:48 -26.02662 150.34633 34083 ft 413 kts 302°
2026-05-05 08:49 -25.99896 150.29049 34079 ft 412 kts 302°
2026-05-05 08:49 -25.97130 150.23471 34078 ft 412 kts 302°
2026-05-05 08:50 -25.94364 150.17901 34075 ft 412 kts 302°
2026-05-05 08:50 -25.91617 150.12374 34098 ft 411 kts 302°
2026-05-05 08:51 -25.88858 150.06830 34090 ft 410 kts 302°
2026-05-05 08:51 -25.86094 150.01288 34050 ft 411 kts 302°
2026-05-05 08:52 -25.83321 149.95731 34061 ft 412 kts 302°
2026-05-05 08:52 -25.80580 149.90188 34065 ft 414 kts 300°
2026-05-05 08:53 -25.78381 149.84269 34113 ft 415 kts 295°
2026-05-05 08:53 -25.76285 149.78309 34111 ft 414 kts 295°
2026-05-05 08:54 -25.74184 149.72370 34099 ft 413 kts 295°
2026-05-05 08:54 -25.72087 149.66443 34095 ft 412 kts 295°
2026-05-05 08:55 -25.70008 149.60577 34086 ft 411 kts 295°
2026-05-05 08:55 -25.67918 149.54692 34100 ft 410 kts 295°
2026-05-05 08:56 -25.65829 149.48816 34085 ft 409 kts 295°
2026-05-05 08:56 -25.63744 149.42961 34089 ft 408 kts 295°
2026-05-05 08:57 -25.61673 149.37152 34085 ft 408 kts 295°
2026-05-05 08:57 -25.59584 149.31303 34086 ft 408 kts 295°
2026-05-05 08:58 -25.57494 149.25460 34092 ft 408 kts 295°
2026-05-05 08:58 -25.55399 149.19610 34096 ft 408 kts 295°
2026-05-05 08:59 -25.53316 149.13800 34106 ft 409 kts 295°
2026-05-05 08:59 -25.51215 149.07950 34106 ft 409 kts 295°
2026-05-05 09:00 -25.49107 149.02089 34103 ft 410 kts 295°
2026-05-05 09:00 -25.46996 148.96228 34111 ft 410 kts 295°
2026-05-05 09:01 -25.44895 148.90402 34120 ft 410 kts 295°
2026-05-05 09:01 -25.42777 148.84538 34115 ft 411 kts 295°
2026-05-05 09:02 -25.40655 148.78673 34119 ft 411 kts 295°
2026-05-05 09:02 -25.38528 148.72807 34092 ft 411 kts 295°
2026-05-05 09:03 -25.36397 148.66932 34107 ft 412 kts 295°
2026-05-05 09:03 -25.34275 148.61092 34100 ft 413 kts 295°
2026-05-05 09:04 -25.32134 148.55204 34093 ft 413 kts 295°
2026-05-05 09:04 -25.29988 148.49315 34114 ft 413 kts 295°
2026-05-05 09:05 -25.27837 148.43426 34134 ft 413 kts 295°
2026-05-05 09:05 -25.25699 148.37578 34135 ft 413 kts 295°
2026-05-05 09:06 -25.23547 148.31694 34134 ft 413 kts 295°
2026-05-05 09:06 -25.21393 148.25813 34132 ft 413 kts 295°
2026-05-05 09:07 -25.19234 148.19934 34154 ft 413 kts 295°
2026-05-05 09:07 -25.17087 148.14092 34100 ft 413 kts 295°
2026-05-05 09:08 -25.14924 148.08215 34124 ft 413 kts 295°
2026-05-05 09:08 -25.12758 148.02339 34129 ft 413 kts 295°
2026-05-05 09:09 -25.10589 147.96461 34132 ft 414 kts 295°
2026-05-05 09:09 -25.08416 147.90584 34120 ft 415 kts 294°
2026-05-05 09:10 -25.06252 147.84735 34127 ft 415 kts 294°
2026-05-05 09:10 -25.04068 147.78846 34146 ft 415 kts 294°
2026-05-05 09:11 -25.01880 147.72954 34143 ft 415 kts 295°
2026-05-05 09:11 -24.99689 147.67059 34130 ft 416 kts 295°
2026-05-05 09:12 -24.97507 147.61197 34136 ft 416 kts 294°
2026-05-05 09:12 -24.95305 147.55288 34140 ft 417 kts 294°
2026-05-05 09:13 -24.93102 147.49380 34143 ft 417 kts 295°
2026-05-05 09:13 -24.90736 147.43545 34134 ft 417 kts 296°
2026-05-05 09:14 -24.88334 147.37779 34142 ft 417 kts 296°
2026-05-05 09:14 -24.85940 147.31964 34125 ft 417 kts 296°
2026-05-05 09:15 -24.83552 147.26140 34126 ft 417 kts 296°
2026-05-05 09:15 -24.81159 147.20313 34124 ft 418 kts 296°
2026-05-05 09:16 -24.78763 147.14489 34130 ft 417 kts 296°
2026-05-05 09:16 -24.76380 147.08707 34112 ft 418 kts 296°
2026-05-05 09:17 -24.73975 147.02883 34110 ft 418 kts 296°
2026-05-05 09:17 -24.71566 146.97054 34113 ft 419 kts 296°
2026-05-05 09:18 -24.69152 146.91216 34111 ft 420 kts 296°
2026-05-05 09:18 -24.66747 146.85415 34120 ft 420 kts 296°
2026-05-05 09:19 -24.64321 146.79568 34129 ft 421 kts 296°
2026-05-05 09:19 -24.61889 146.73715 34133 ft 421 kts 296°
2026-05-05 09:20 -24.59455 146.67862 34130 ft 421 kts 296°
2026-05-05 09:20 -24.57033 146.62048 34136 ft 421 kts 296°
2026-05-05 09:21 -24.54595 146.56203 34132 ft 421 kts 296°
2026-05-05 09:21 -24.52154 146.50358 34134 ft 421 kts 296°
2026-05-05 09:22 -24.49713 146.44520 34128 ft 420 kts 296°
2026-05-05 09:22 -24.47290 146.38735 34129 ft 419 kts 296°
2026-05-05 09:23 -24.44855 146.32928 34124 ft 419 kts 296°
2026-05-05 09:23 -24.42420 146.27126 34102 ft 419 kts 296°
2026-05-05 09:24 -24.39981 146.21326 34103 ft 419 kts 296°
2026-05-05 09:24 -24.37554 146.15559 34108 ft 419 kts 296°
2026-05-05 09:25 -24.35107 146.09750 34127 ft 420 kts 296°
2026-05-05 09:25 -24.32652 146.03933 34135 ft 420 kts 296°
2026-05-05 09:26 -24.30192 145.98113 34130 ft 421 kts 296°
2026-05-05 09:26 -24.27747 145.92334 34132 ft 421 kts 296°
2026-05-05 09:27 -24.25284 145.86519 34131 ft 421 kts 296°
2026-05-05 09:27 -24.22818 145.80706 34113 ft 421 kts 296°
2026-05-05 09:28 -24.20353 145.74901 34101 ft 420 kts 296°
2026-05-05 09:28 -24.17901 145.69136 34105 ft 420 kts 296°
2026-05-05 09:29 -24.15431 145.63334 34110 ft 420 kts 296°
2026-05-05 09:29 -24.12959 145.57536 34103 ft 420 kts 296°
2026-05-05 09:30 -24.10484 145.51737 34106 ft 420 kts 295°
2026-05-05 09:30 -24.08007 145.45943 34105 ft 420 kts 295°
2026-05-05 09:31 -24.05546 145.40191 34112 ft 420 kts 295°
2026-05-05 09:31 -24.03063 145.34396 34109 ft 421 kts 295°
2026-05-05 09:32 -24.00576 145.28601 34114 ft 421 kts 295°
2026-05-05 09:32 -23.98087 145.22808 34104 ft 421 kts 295°
2026-05-05 09:33 -23.95611 145.17051 34103 ft 422 kts 295°
2026-05-05 09:33 -23.93113 145.11250 34109 ft 422 kts 295°
2026-05-05 09:34 -23.90612 145.05449 34111 ft 422 kts 295°
2026-05-05 09:34 -23.88106 144.99646 34113 ft 422 kts 295°
2026-05-05 09:35 -23.85614 144.93882 34108 ft 422 kts 295°
2026-05-05 09:35 -23.81853 144.85198 34132 ft 421 kts 295°
2026-05-05 09:36 -23.79355 144.79435 34122 ft 419 kts 295°
2026-05-05 09:36 -23.76859 144.73684 34096 ft 419 kts 295°
2026-05-05 09:37 -23.74363 144.67942 34102 ft 418 kts 295°
2026-05-05 09:37 -23.71885 144.62250 34099 ft 418 kts 295°
2026-05-05 09:38 -23.69388 144.56520 34109 ft 418 kts 295°
2026-05-05 09:38 -23.66887 144.50788 34116 ft 419 kts 295°
2026-05-05 09:39 -23.64379 144.45048 34116 ft 419 kts 295°
2026-05-05 09:39 -23.61867 144.39303 34115 ft 420 kts 295°
2026-05-05 09:40 -23.59366 144.33592 34121 ft 420 kts 295°
2026-05-05 09:40 -23.56844 144.27839 34118 ft 421 kts 295°
2026-05-05 09:41 -23.54320 144.22091 34119 ft 420 kts 295°
2026-05-05 09:41 -23.51794 144.16343 34118 ft 420 kts 295°
2026-05-05 09:42 -23.49284 144.10639 34118 ft 420 kts 295°
2026-05-05 09:42 -23.46755 144.04900 34122 ft 420 kts 295°
2026-05-05 09:43 -23.44224 143.99163 34119 ft 420 kts 295°
2026-05-05 09:43 -23.41695 143.93435 34118 ft 420 kts 295°
2026-05-05 09:44 -23.39179 143.87746 34116 ft 420 kts 295°
2026-05-05 09:44 -23.36642 143.82016 34118 ft 420 kts 295°
2026-05-05 09:45 -23.34107 143.76296 34119 ft 420 kts 295°
2026-05-05 09:45 -23.31565 143.70569 34105 ft 421 kts 295°
2026-05-05 09:46 -23.29035 143.64874 34121 ft 421 kts 295°
2026-05-05 09:46 -23.26483 143.59139 34118 ft 422 kts 295°
2026-05-05 09:47 -23.23926 143.53397 34127 ft 422 kts 295°
2026-05-05 09:47 -23.21364 143.47653 34126 ft 422 kts 295°
2026-05-05 09:48 -23.18818 143.41951 34127 ft 422 kts 295°
2026-05-05 09:48 -23.16253 143.36212 34120 ft 422 kts 294°
2026-05-05 09:49 -23.13696 143.30496 34131 ft 420 kts 294°
2026-05-05 09:49 -23.11139 143.24790 34125 ft 420 kts 294°
2026-05-05 09:50 -23.08582 143.19089 34120 ft 420 kts 294°
2026-05-05 09:50 -23.06045 143.13438 34119 ft 419 kts 294°
2026-05-05 09:51 -23.03488 143.07745 34119 ft 419 kts 294°
2026-05-05 09:51 -23.00930 143.02057 34115 ft 419 kts 294°
2026-05-05 09:52 -22.98226 142.96438 34115 ft 420 kts 296°
2026-05-05 09:52 -22.95486 142.90843 34119 ft 420 kts 296°
2026-05-05 09:53 -22.92763 142.85273 34126 ft 421 kts 296°
2026-05-05 09:53 -22.90012 142.79674 34124 ft 421 kts 296°
2026-05-05 09:54 -22.87254 142.74074 34131 ft 421 kts 296°
2026-05-05 09:54 -22.84495 142.68477 34131 ft 421 kts 296°
2026-05-05 09:55 -22.81754 142.62923 34122 ft 421 kts 296°
2026-05-05 09:55 -22.78991 142.57333 34126 ft 421 kts 296°
2026-05-05 09:56 -22.76226 142.51743 34118 ft 421 kts 296°
2026-05-05 09:56 -22.73456 142.46148 34115 ft 421 kts 296°
2026-05-05 09:57 -22.70701 142.40591 34121 ft 422 kts 296°
2026-05-05 09:57 -22.67924 142.34996 34121 ft 422 kts 296°
2026-05-05 09:58 -22.65144 142.29402 34122 ft 422 kts 296°
2026-05-05 09:58 -22.62361 142.23805 34115 ft 422 kts 296°
2026-05-05 09:59 -22.59576 142.18213 34117 ft 422 kts 296°
2026-05-05 09:59 -22.56807 142.12658 34117 ft 423 kts 296°
2026-05-05 10:00 -22.54015 142.07064 34131 ft 422 kts 296°
2026-05-05 10:00 -22.51221 142.01470 34125 ft 422 kts 295°
2026-05-05 10:01 -22.48424 141.95879 34120 ft 423 kts 295°
2026-05-05 10:01 -22.45645 141.90328 34117 ft 423 kts 296°
2026-05-05 10:02 -22.42843 141.84738 34120 ft 423 kts 296°
2026-05-05 10:02 -22.40040 141.79152 34114 ft 423 kts 295°
2026-05-05 10:03 -22.37235 141.73568 34119 ft 423 kts 295°
2026-05-05 10:03 -22.34444 141.68017 34122 ft 423 kts 295°
2026-05-05 10:04 -22.31632 141.62432 34120 ft 423 kts 295°
2026-05-05 10:04 -22.28817 141.56845 34131 ft 424 kts 295°
2026-05-05 10:05 -22.25998 141.51258 34122 ft 424 kts 296°
2026-05-05 10:05 -22.23196 141.45709 34123 ft 424 kts 296°
2026-05-05 10:06 -22.20372 141.40125 34128 ft 424 kts 296°
2026-05-05 10:06 -22.17547 141.34542 34132 ft 424 kts 296°
2026-05-05 10:07 -22.14721 141.28964 34123 ft 424 kts 296°
2026-05-05 10:07 -22.11911 141.23426 34128 ft 424 kts 296°
2026-05-05 10:08 -22.09081 141.17852 34130 ft 424 kts 296°
2026-05-05 10:08 -22.06247 141.12276 34138 ft 424 kts 296°
2026-05-05 10:09 -22.03411 141.06704 34121 ft 424 kts 295°
2026-05-05 10:09 -22.00591 141.01165 34104 ft 424 kts 295°
2026-05-05 10:10 -21.97794 140.95576 34129 ft 423 kts 295°
2026-05-05 10:10 -21.95055 140.89960 34129 ft 424 kts 295°
2026-05-05 10:11 -21.92306 140.84349 34128 ft 424 kts 295°
2026-05-05 10:11 -21.89566 140.78780 34131 ft 424 kts 295°
2026-05-05 10:12 -21.86801 140.73170 34136 ft 424 kts 295°
2026-05-05 10:12 -21.84033 140.67561 34139 ft 424 kts 295°
2026-05-05 10:13 -21.81260 140.61949 34139 ft 425 kts 295°
2026-05-05 10:13 -21.78504 140.56374 34142 ft 425 kts 295°
2026-05-05 10:14 -21.75727 140.50763 34142 ft 425 kts 295°
2026-05-05 10:14 -21.72945 140.45150 34141 ft 425 kts 295°
2026-05-05 10:15 -21.70164 140.39544 34142 ft 425 kts 295°
2026-05-05 10:15 -21.67400 140.33977 34141 ft 425 kts 295°
2026-05-05 10:16 -21.64616 140.28377 34140 ft 425 kts 295°
2026-05-05 10:16 -21.61829 140.22775 34139 ft 425 kts 295°
2026-05-05 10:17 -21.59041 140.17178 34136 ft 425 kts 295°
2026-05-05 10:17 -21.56247 140.11574 34137 ft 425 kts 295°
2026-05-05 10:18 -21.53473 140.06017 34140 ft 425 kts 295°
2026-05-05 10:18 -21.50674 140.00418 34140 ft 425 kts 295°
2026-05-05 10:19 -21.47873 139.94818 34137 ft 426 kts 295°
2026-05-05 10:19 -21.45070 139.89220 34140 ft 426 kts 295°
2026-05-05 10:20 -21.42279 139.83653 34143 ft 426 kts 295°
2026-05-05 10:20 -21.39465 139.78045 34130 ft 427 kts 295°
2026-05-05 10:21 -21.36648 139.72435 34136 ft 428 kts 295°
2026-05-05 10:21 -21.33820 139.66812 34142 ft 428 kts 295°
2026-05-05 10:22 -21.31006 139.61222 34147 ft 429 kts 295°
2026-05-05 10:22 -21.28168 139.55591 34149 ft 430 kts 295°
2026-05-05 10:23 -21.25325 139.49954 34142 ft 430 kts 295°
2026-05-05 10:23 -21.22476 139.44313 34147 ft 430 kts 295°
2026-05-05 10:24 -21.19642 139.38707 34149 ft 431 kts 295°
2026-05-05 10:24 -21.16786 139.33062 34149 ft 431 kts 295°
2026-05-05 10:25 -21.13926 139.27416 34150 ft 431 kts 295°
2026-05-05 10:25 -21.11067 139.21778 34148 ft 431 kts 295°
2026-05-05 10:26 -21.08207 139.16143 34146 ft 430 kts 295°
2026-05-05 10:26 -21.05366 139.10553 34139 ft 430 kts 295°
2026-05-05 10:27 -21.02506 139.04929 34151 ft 430 kts 295°
2026-05-05 10:27 -20.99569 138.99358 34144 ft 431 kts 298°
2026-05-05 10:28 -20.96157 138.94114 34131 ft 432 kts 300°
2026-05-05 10:28 -20.92731 138.88844 34130 ft 431 kts 300°
2026-05-05 10:29 -20.89306 138.83574 34120 ft 432 kts 300°
2026-05-05 10:29 -20.85871 138.78300 34087 ft 432 kts 300°
2026-05-05 10:30 -20.82449 138.73055 34115 ft 434 kts 300°
2026-05-05 10:30 -20.78992 138.67761 34127 ft 435 kts 300°
2026-05-05 10:31 -20.75517 138.62445 34132 ft 437 kts 300°
2026-05-05 10:31 -20.72031 138.57116 34154 ft 438 kts 300°
2026-05-05 10:32 -20.68533 138.51775 34154 ft 439 kts 300°
2026-05-05 10:32 -20.65053 138.46467 34156 ft 439 kts 300°
2026-05-05 10:33 -20.61547 138.41124 34142 ft 439 kts 300°
2026-05-05 10:33 -20.58040 138.35783 34142 ft 439 kts 300°
2026-05-05 10:34 -20.54532 138.30447 34145 ft 439 kts 300°
2026-05-05 10:34 -20.51046 138.25148 34145 ft 439 kts 300°
2026-05-05 10:35 -20.47533 138.19814 34138 ft 439 kts 300°
2026-05-05 10:35 -20.44023 138.14487 34137 ft 439 kts 300°
2026-05-05 10:36 -20.40507 138.09158 34117 ft 439 kts 301°
2026-05-05 10:36 -20.37013 138.03868 34123 ft 440 kts 301°
2026-05-05 10:37 -20.33490 137.98537 34125 ft 440 kts 301°
2026-05-05 10:37 -20.29959 137.93199 34128 ft 441 kts 301°
2026-05-05 10:38 -20.26419 137.87853 34132 ft 442 kts 301°
2026-05-05 10:38 -20.22899 137.82541 34136 ft 442 kts 301°
2026-05-05 10:39 -20.19348 137.77190 34135 ft 442 kts 301°
2026-05-05 10:39 -20.15797 137.71841 34137 ft 442 kts 301°
2026-05-05 10:40 -20.12243 137.66494 34131 ft 442 kts 301°
2026-05-05 10:40 -20.08689 137.61151 34130 ft 442 kts 301°
2026-05-05 10:41 -20.05159 137.55849 34130 ft 442 kts 301°
2026-05-05 10:41 -20.01600 137.50508 34133 ft 442 kts 301°
2026-05-05 10:42 -19.96265 137.42510 34106 ft 442 kts 301°
2026-05-05 10:43 -19.92733 137.37223 34124 ft 442 kts 300°
2026-05-05 10:43 -19.89177 137.31903 34125 ft 442 kts 301°
2026-05-05 10:44 -19.85617 137.26581 34121 ft 442 kts 301°
2026-05-05 10:44 -19.82055 137.21263 34128 ft 442 kts 301°
2026-05-05 10:45 -19.78515 137.15980 34128 ft 442 kts 301°
2026-05-05 10:45 -19.74947 137.10662 34124 ft 442 kts 301°
2026-05-05 10:46 -19.71376 137.05344 34124 ft 442 kts 301°
2026-05-05 10:46 -19.67806 137.00032 34128 ft 442 kts 301°
2026-05-05 10:47 -19.64259 136.94759 34116 ft 442 kts 301°
2026-05-05 10:47 -19.60691 136.89459 34114 ft 442 kts 301°
2026-05-05 10:48 -19.57116 136.84153 34120 ft 442 kts 301°
2026-05-05 10:48 -19.53536 136.78845 34124 ft 443 kts 301°
2026-05-05 10:49 -19.49978 136.73574 34113 ft 443 kts 301°
2026-05-05 10:49 -19.46392 136.68266 34115 ft 443 kts 301°
2026-05-05 10:50 -19.42800 136.62954 34117 ft 444 kts 301°
2026-05-05 10:50 -19.39202 136.57637 34118 ft 444 kts 301°
2026-05-05 10:51 -19.35628 136.52360 34121 ft 444 kts 301°
2026-05-05 10:51 -19.32024 136.47044 34121 ft 444 kts 301°
2026-05-05 10:52 -19.28419 136.41731 34119 ft 444 kts 301°
2026-05-05 10:52 -19.24814 136.36422 34112 ft 444 kts 301°
2026-05-05 10:53 -19.21229 136.31148 34114 ft 444 kts 301°
2026-05-05 10:53 -19.17622 136.25846 34112 ft 444 kts 301°
2026-05-05 10:54 -19.14011 136.20543 34116 ft 444 kts 301°
2026-05-05 10:54 -19.10399 136.15244 34109 ft 444 kts 301°
2026-05-05 10:55 -19.06808 136.09977 34100 ft 444 kts 301°
2026-05-05 10:55 -19.03190 136.04674 34094 ft 445 kts 301°
2026-05-05 10:56 -18.99668 135.99299 34092 ft 443 kts 296°
2026-05-05 10:56 -18.96817 135.93553 34106 ft 442 kts 293°
2026-05-05 10:57 -18.93985 135.87788 34113 ft 442 kts 294°
2026-05-05 10:57 -18.91159 135.82057 34118 ft 443 kts 294°
2026-05-05 10:58 -18.88312 135.76289 34112 ft 443 kts 294°
2026-05-05 10:58 -18.85461 135.70518 34111 ft 443 kts 294°
2026-05-05 10:59 -18.82607 135.64747 34112 ft 443 kts 294°
2026-05-05 10:59 -18.79772 135.59019 34114 ft 443 kts 294°
2026-05-05 11:00 -18.76917 135.53255 34108 ft 443 kts 294°
2026-05-05 11:00 -18.74061 135.47495 34110 ft 443 kts 294°
2026-05-05 11:01 -18.71202 135.41735 34109 ft 443 kts 294°
2026-05-05 11:01 -18.68340 135.35975 34106 ft 443 kts 294°
2026-05-05 11:02 -18.65494 135.30253 34105 ft 444 kts 294°
2026-05-05 11:02 -18.62627 135.24492 34104 ft 444 kts 294°
2026-05-05 11:03 -18.59756 135.18731 34104 ft 444 kts 294°
2026-05-05 11:03 -18.56881 135.12966 34099 ft 444 kts 294°
2026-05-05 11:04 -18.54026 135.07247 34103 ft 444 kts 294°
2026-05-05 11:04 -18.51150 135.01492 34105 ft 444 kts 294°
2026-05-05 11:05 -18.48270 134.95732 34089 ft 444 kts 294°
2026-05-05 11:05 -18.45384 134.89967 34090 ft 445 kts 294°
2026-05-05 11:06 -18.42512 134.84236 34102 ft 446 kts 294°
2026-05-05 11:06 -18.39615 134.78459 34104 ft 446 kts 294°
2026-05-05 11:07 -18.36715 134.72682 34101 ft 447 kts 294°
2026-05-05 11:07 -18.33810 134.66901 34084 ft 447 kts 294°
2026-05-05 11:08 -18.30917 134.61149 34099 ft 448 kts 294°
2026-05-05 11:08 -18.28001 134.55356 34103 ft 448 kts 294°
2026-05-05 11:09 -18.25080 134.49559 34102 ft 448 kts 294°
2026-05-05 11:09 -18.22157 134.43764 34101 ft 448 kts 294°
2026-05-05 11:10 -18.19231 134.37969 34106 ft 448 kts 294°
2026-05-05 11:10 -18.16327 134.32222 34099 ft 448 kts 294°
2026-05-05 11:11 -18.13403 134.26441 34100 ft 448 kts 294°
2026-05-05 11:11 -18.10481 134.20668 34099 ft 447 kts 294°
2026-05-05 11:12 -18.07560 134.14904 34089 ft 447 kts 294°
2026-05-05 11:12 -18.04659 134.09184 34087 ft 446 kts 294°
2026-05-05 11:13 -18.01740 134.03431 34075 ft 446 kts 294°
2026-05-05 11:13 -17.98826 133.97670 34083 ft 447 kts 294°
2026-05-05 11:14 -17.96458 133.92854 34089 ft 447 kts 294°
2026-05-05 11:14 -17.93144 133.86100 34081 ft 448 kts 294°
2026-05-05 11:15 -17.90284 133.80300 34091 ft 448 kts 294°
2026-05-05 11:15 -17.87416 133.74492 34079 ft 448 kts 294°
2026-05-05 11:16 -17.85031 133.69669 34083 ft 448 kts 294°
2026-05-05 11:16 -17.81687 133.62913 34090 ft 449 kts 294°
2026-05-05 11:17 -17.78811 133.57105 34089 ft 449 kts 294°
2026-05-05 11:17 -17.76418 133.52278 34090 ft 449 kts 294°
2026-05-05 11:18 -17.73070 133.45531 34087 ft 449 kts 294°
2026-05-05 11:18 -17.70187 133.39728 34074 ft 449 kts 294°
2026-05-05 11:19 -17.67792 133.34909 34081 ft 449 kts 294°
2026-05-05 11:19 -17.64900 133.29098 34075 ft 449 kts 294°
2026-05-05 11:20 -17.61541 133.22352 34078 ft 449 kts 294°
2026-05-05 11:20 -17.58648 133.16549 34080 ft 449 kts 294°
2026-05-05 11:21 -17.56241 133.11724 34080 ft 449 kts 294°
2026-05-05 11:21 -17.53342 133.05919 34072 ft 450 kts 294°
2026-05-05 11:22 -17.49970 132.99173 34074 ft 450 kts 294°
2026-05-05 11:22 -17.47534 132.94303 34077 ft 450 kts 294°
2026-05-05 11:23 -17.44645 132.88533 34074 ft 451 kts 294°
2026-05-05 11:23 -17.41732 132.82721 34075 ft 451 kts 294°
2026-05-05 11:24 -17.38816 132.76906 34054 ft 451 kts 294°
2026-05-05 11:24 -17.35919 132.71136 34064 ft 451 kts 294°
2026-05-05 11:25 -17.33000 132.65327 34065 ft 451 kts 294°
2026-05-05 11:25 -17.30075 132.59512 34069 ft 452 kts 294°
2026-05-05 11:26 -17.27148 132.53695 34068 ft 452 kts 294°
2026-05-05 11:26 -17.24218 132.47881 34071 ft 452 kts 294°
2026-05-05 11:27 -17.21307 132.42107 34053 ft 452 kts 295°
2026-05-05 11:27 -17.18371 132.36291 34064 ft 452 kts 295°
2026-05-05 11:28 -17.15431 132.30470 34063 ft 453 kts 295°
2026-05-05 11:28 -17.12487 132.24648 34064 ft 453 kts 295°
2026-05-05 11:29 -17.09560 132.18864 34067 ft 453 kts 294°
2026-05-05 11:29 -17.06608 132.13036 34066 ft 454 kts 295°
2026-05-05 11:30 -17.03656 132.07213 34057 ft 453 kts 295°
2026-05-05 11:30 -17.00702 132.01389 34057 ft 454 kts 295°
2026-05-05 11:31 -16.97795 131.95586 34058 ft 454 kts 294°
2026-05-05 11:31 -16.94919 131.89722 34059 ft 454 kts 294°
2026-05-05 11:32 -16.92035 131.83861 34055 ft 454 kts 294°
2026-05-05 11:32 -16.89142 131.78002 34056 ft 454 kts 294°
2026-05-05 11:33 -16.86267 131.72189 34046 ft 453 kts 294°
2026-05-05 11:33 -16.83373 131.66340 34041 ft 454 kts 294°
2026-05-05 11:34 -16.80473 131.60487 34039 ft 454 kts 294°
2026-05-05 11:34 -16.77571 131.54634 34044 ft 454 kts 294°
2026-05-05 11:35 -16.74684 131.48816 34039 ft 454 kts 294°
2026-05-05 11:35 -16.71777 131.42962 34039 ft 455 kts 294°
2026-05-05 11:36 -16.68867 131.37108 34034 ft 454 kts 295°
2026-05-05 11:36 -16.65956 131.31257 34037 ft 454 kts 295°
2026-05-05 11:37 -16.63062 131.25446 34037 ft 455 kts 295°
2026-05-05 11:37 -16.60149 131.19600 34038 ft 455 kts 295°
2026-05-05 11:38 -16.57232 131.13752 34038 ft 455 kts 295°
2026-05-05 11:38 -16.54315 131.07909 34035 ft 455 kts 295°
2026-05-05 11:39 -16.51415 131.02105 34035 ft 454 kts 295°
2026-05-05 11:39 -16.48494 130.96264 34029 ft 454 kts 295°
2026-05-05 11:40 -16.45573 130.90427 34032 ft 454 kts 295°
2026-05-05 11:40 -16.42651 130.84594 34032 ft 454 kts 295°
2026-05-05 11:41 -16.39727 130.78763 34029 ft 454 kts 295°
2026-05-05 11:41 -16.36818 130.72964 34030 ft 454 kts 295°
2026-05-05 11:42 -16.33890 130.67135 34016 ft 455 kts 295°
2026-05-05 11:42 -16.30962 130.61310 34027 ft 454 kts 295°
2026-05-05 11:43 -16.28032 130.55486 34027 ft 454 kts 295°
2026-05-05 11:43 -16.25118 130.49697 34025 ft 455 kts 295°
2026-05-05 11:44 -16.22181 130.43869 34026 ft 454 kts 295°
2026-05-05 11:44 -16.19245 130.38048 34023 ft 454 kts 295°
2026-05-05 11:45 -16.16307 130.32229 34023 ft 454 kts 295°
2026-05-05 11:45 -16.13387 130.26447 34036 ft 455 kts 295°
2026-05-05 11:46 -16.10445 130.20627 34025 ft 455 kts 295°
2026-05-05 11:46 -16.07496 130.14800 34010 ft 455 kts 295°
2026-05-05 11:47 -16.04547 130.08978 34002 ft 455 kts 295°
2026-05-05 11:47 -16.01596 130.03154 34003 ft 455 kts 295°
2026-05-05 11:48 -15.97293 129.94413 34017 ft 455 kts 293°
2026-05-05 11:48 -15.94524 129.88506 33995 ft 455 kts 294°
2026-05-05 11:49 -15.91736 129.82612 33993 ft 455 kts 294°
2026-05-05 11:49 -15.88951 129.76756 33996 ft 455 kts 294°
2026-05-05 11:50 -15.86145 129.70863 34007 ft 455 kts 294°
2026-05-05 11:50 -15.83338 129.64975 34012 ft 454 kts 294°
2026-05-05 11:51 -15.80532 129.59092 34003 ft 455 kts 294°
2026-05-05 11:51 -15.77721 129.53204 33990 ft 455 kts 294°
2026-05-05 11:52 -15.74924 129.47349 34001 ft 456 kts 294°
2026-05-05 11:52 -15.72103 129.41451 34000 ft 457 kts 294°
2026-05-05 11:53 -15.69274 129.35539 34003 ft 457 kts 294°
2026-05-05 11:53 -15.66443 129.29629 34002 ft 458 kts 294°
2026-05-05 11:54 -15.63625 129.23752 34006 ft 458 kts 294°
2026-05-05 11:54 -15.60792 129.17846 34007 ft 458 kts 294°
2026-05-05 11:55 -15.57952 129.11933 33984 ft 458 kts 294°
2026-05-05 11:55 -15.55113 129.06029 33981 ft 457 kts 294°
2026-05-05 11:56 -15.52294 129.00168 33990 ft 457 kts 294°
2026-05-05 11:56 -15.49454 128.94267 33988 ft 457 kts 294°
2026-05-05 11:57 -15.46614 128.88370 33988 ft 457 kts 294°
2026-05-05 11:57 -15.43769 128.82471 33980 ft 458 kts 294°
2026-05-05 11:58 -15.40940 128.76610 33985 ft 458 kts 294°
2026-05-05 11:58 -15.38092 128.70713 33983 ft 458 kts 294°
2026-05-05 11:59 -15.35241 128.64815 33987 ft 458 kts 294°
2026-05-05 11:59 -15.32384 128.58909 33985 ft 459 kts 294°
2026-05-05 12:00 -15.29542 128.53040 33989 ft 459 kts 294°
2026-05-05 12:00 -15.26680 128.47132 33987 ft 459 kts 294°
2026-05-05 12:01 -15.23816 128.41228 33986 ft 459 kts 294°
2026-05-05 12:01 -15.20950 128.35322 33983 ft 459 kts 294°
2026-05-05 12:02 -15.18102 128.29459 33975 ft 459 kts 294°
2026-05-05 12:02 -15.15232 128.23556 33976 ft 459 kts 294°
2026-05-05 12:03 -15.12360 128.17653 33981 ft 459 kts 294°
2026-05-05 12:03 -15.09484 128.11747 33978 ft 460 kts 294°
2026-05-05 12:04 -15.06605 128.05839 33984 ft 460 kts 294°
2026-05-05 12:04 -15.03744 127.99971 33987 ft 460 kts 294°
2026-05-05 12:05 -15.00860 127.94064 33974 ft 460 kts 294°
2026-05-05 12:05 -14.97973 127.88152 33985 ft 461 kts 294°
2026-05-05 12:06 -14.95079 127.82233 33991 ft 461 kts 294°
2026-05-05 12:06 -14.92200 127.76347 33995 ft 462 kts 294°
2026-05-05 12:07 -14.89298 127.70420 34003 ft 462 kts 294°
2026-05-05 12:07 -14.86414 127.64474 33997 ft 462 kts 291°
2026-05-05 12:08 -14.83939 127.58364 33999 ft 461 kts 290°
2026-05-05 12:08 -14.81485 127.52291 34001 ft 461 kts 290°
2026-05-05 12:09 -14.79007 127.46174 33989 ft 462 kts 290°
2026-05-05 12:09 -14.76526 127.40055 33989 ft 462 kts 290°
2026-05-05 12:10 -14.74039 127.33925 33997 ft 463 kts 290°
2026-05-05 12:10 -14.71565 127.27831 34007 ft 463 kts 290°
2026-05-05 12:11 -14.69068 127.21692 34005 ft 464 kts 290°
2026-05-05 12:11 -14.66569 127.15551 34005 ft 464 kts 290°
2026-05-05 12:12 -14.64063 127.09402 33998 ft 464 kts 290°
2026-05-05 12:12 -14.61558 127.03258 34001 ft 464 kts 290°
2026-05-05 12:13 -14.59066 126.97154 33997 ft 464 kts 290°
2026-05-05 12:13 -14.56557 126.91010 33998 ft 464 kts 290°
2026-05-05 12:14 -14.54047 126.84871 33995 ft 464 kts 290°
2026-05-05 12:14 -14.51534 126.78731 33994 ft 464 kts 290°
2026-05-05 12:15 -14.49040 126.72644 33990 ft 464 kts 290°
2026-05-05 12:15 -14.46524 126.66506 33988 ft 464 kts 290°
2026-05-05 12:16 -14.44009 126.60375 33993 ft 464 kts 290°
2026-05-05 12:16 -14.41491 126.54243 33975 ft 464 kts 290°
2026-05-05 12:17 -14.38987 126.48150 33988 ft 465 kts 290°
2026-05-05 12:17 -14.36463 126.42013 33991 ft 465 kts 290°
2026-05-05 12:18 -14.33935 126.35872 33991 ft 465 kts 290°
2026-05-05 12:18 -14.31403 126.29728 33989 ft 466 kts 290°
2026-05-05 12:19 -14.28886 126.23624 33992 ft 466 kts 290°
2026-05-05 12:19 -14.26350 126.17478 33993 ft 466 kts 290°
2026-05-05 12:20 -14.23814 126.11340 33985 ft 466 kts 290°
2026-05-05 12:20 -14.21276 126.05200 33970 ft 465 kts 290°
2026-05-05 12:21 -14.18752 125.99100 33972 ft 466 kts 290°
2026-05-05 12:21 -14.16210 125.92961 33976 ft 466 kts 290°
2026-05-05 12:22 -14.13664 125.86818 33976 ft 466 kts 290°
2026-05-05 12:22 -14.11113 125.80669 33978 ft 467 kts 290°
2026-05-05 12:23 -14.08577 125.74562 33986 ft 467 kts 290°
2026-05-05 12:23 -14.06023 125.68413 33986 ft 467 kts 290°
2026-05-05 12:24 -14.03465 125.62263 33985 ft 467 kts 290°
2026-05-05 12:24 -14.00907 125.56116 33982 ft 467 kts 290°
2026-05-05 12:25 -13.98348 125.49973 33990 ft 467 kts 290°
2026-05-05 12:25 -13.95804 125.43870 33974 ft 467 kts 290°
2026-05-05 12:26 -13.93241 125.37728 33972 ft 467 kts 290°
2026-05-05 12:26 -13.90677 125.31586 33967 ft 467 kts 290°
2026-05-05 12:27 -13.88129 125.25490 33972 ft 467 kts 290°
2026-05-05 12:27 -13.85564 125.19356 33976 ft 467 kts 290°
2026-05-05 12:28 -13.82998 125.13226 33978 ft 466 kts 290°
2026-05-05 12:28 -13.80432 125.07100 33992 ft 466 kts 290°
2026-05-05 12:29 -13.77868 125.00984 33958 ft 466 kts 290°
2026-05-05 12:29 -13.75315 124.94900 33983 ft 466 kts 290°
2026-05-05 12:30 -13.72742 124.88773 33985 ft 466 kts 290°
2026-05-05 12:30 -13.70168 124.82650 33983 ft 466 kts 290°
2026-05-05 12:31 -13.67594 124.76531 33988 ft 466 kts 290°
2026-05-05 12:31 -13.65035 124.70451 33982 ft 466 kts 290°
2026-05-05 12:32 -13.62458 124.64333 33990 ft 466 kts 290°
2026-05-05 12:32 -13.59881 124.58222 33990 ft 466 kts 290°
2026-05-05 12:33 -13.57304 124.52113 33947 ft 466 kts 290°
2026-05-05 12:33 -13.54738 124.46037 33972 ft 467 kts 290°
2026-05-05 12:34 -13.52149 124.39911 33969 ft 468 kts 290°
2026-05-05 12:34 -13.49552 124.33770 33973 ft 469 kts 290°
2026-05-05 12:35 -13.46953 124.27632 33980 ft 469 kts 290°
2026-05-05 12:35 -13.44349 124.21485 33985 ft 469 kts 290°
2026-05-05 12:36 -13.41763 124.15386 33988 ft 469 kts 290°
2026-05-05 12:36 -13.39158 124.09246 33983 ft 469 kts 290°
2026-05-05 12:37 -13.36555 124.03117 33979 ft 468 kts 290°
2026-05-05 12:37 -13.33966 123.97023 33944 ft 469 kts 291°
2026-05-05 12:38 -13.31353 123.90879 33969 ft 470 kts 291°
2026-05-05 12:38 -13.28731 123.84720 33975 ft 471 kts 291°
2026-05-05 12:39 -13.26105 123.78556 33978 ft 472 kts 291°
2026-05-05 12:39 -13.23475 123.72386 33979 ft 472 kts 291°
2026-05-05 12:40 -13.20860 123.66255 33988 ft 472 kts 291°
2026-05-05 12:40 -13.18226 123.60086 33985 ft 472 kts 291°
2026-05-05 12:41 -13.15589 123.53916 33983 ft 472 kts 291°
2026-05-05 12:41 -13.12954 123.47752 33965 ft 472 kts 291°
2026-05-05 12:42 -13.10332 123.41626 33969 ft 473 kts 291°
2026-05-05 12:42 -13.07687 123.35451 33976 ft 473 kts 291°
2026-05-05 12:43 -13.05037 123.29266 33977 ft 474 kts 291°
2026-05-05 12:43 -13.02384 123.23083 33976 ft 474 kts 291°
2026-05-05 12:44 -12.99746 123.16937 33982 ft 474 kts 291°
2026-05-05 12:44 -12.97089 123.10753 33986 ft 474 kts 291°
2026-05-05 12:45 -12.94430 123.04568 33987 ft 474 kts 291°
2026-05-05 12:45 -12.91772 122.98389 33982 ft 473 kts 291°
2026-05-05 12:46 -12.89130 122.92254 33961 ft 474 kts 291°
2026-05-05 12:46 -12.86467 122.86073 33969 ft 474 kts 291°
2026-05-05 12:47 -12.83800 122.79888 33977 ft 475 kts 291°
2026-05-05 12:47 -12.81128 122.73698 33979 ft 475 kts 291°
2026-05-05 12:48 -12.78454 122.67506 33980 ft 475 kts 291°
2026-05-05 12:48 -12.75796 122.61356 33985 ft 475 kts 291°
2026-05-05 12:49 -12.73118 122.55163 33986 ft 475 kts 291°
2026-05-05 12:49 -12.70441 122.48979 33984 ft 475 kts 291°
2026-05-05 12:50 -12.67766 122.42803 33977 ft 474 kts 291°
2026-05-05 12:50 -12.65106 122.36666 33967 ft 475 kts 291°
2026-05-05 12:51 -12.62425 122.30488 33977 ft 475 kts 291°
2026-05-05 12:51 -12.59743 122.24309 33978 ft 475 kts 291°
2026-05-05 12:52 -12.57058 122.18129 33978 ft 475 kts 291°
2026-05-05 12:52 -12.54370 122.11946 33977 ft 475 kts 291°
2026-05-05 12:53 -12.51700 122.05808 33993 ft 475 kts 291°
2026-05-05 12:53 -12.49012 121.99635 33981 ft 475 kts 291°
2026-05-05 12:54 -12.44984 121.90393 33982 ft 474 kts 291°
2026-05-05 12:55 -12.42319 121.84282 33980 ft 473 kts 291°
2026-05-05 12:55 -12.39635 121.78135 33986 ft 473 kts 291°
2026-05-05 12:56 -12.36954 121.71997 33976 ft 472 kts 291°
2026-05-05 12:56 -12.34274 121.65868 33975 ft 472 kts 291°
2026-05-05 12:57 -12.31612 121.59782 33973 ft 472 kts 291°
2026-05-05 12:57 -12.28933 121.53661 33972 ft 471 kts 291°
2026-05-05 12:58 -12.26253 121.47544 33974 ft 471 kts 291°
2026-05-05 12:58 -12.23572 121.41428 33973 ft 471 kts 291°
2026-05-05 12:59 -12.20889 121.35311 33974 ft 471 kts 291°
2026-05-05 12:59 -12.18221 121.29235 33966 ft 472 kts 291°
2026-05-05 13:00 -12.14184 121.20047 33979 ft 472 kts 291°
2026-05-05 13:01 -12.08812 121.07830 33981 ft 473 kts 291°
2026-05-05 13:01 -12.06113 121.01700 33980 ft 473 kts 291°
2026-05-05 13:02 -12.03413 120.95569 33982 ft 473 kts 291°
2026-05-05 13:02 -12.00710 120.89436 33980 ft 473 kts 291°
2026-05-05 13:03 -11.97618 120.83487 33976 ft 475 kts 296°
2026-05-05 13:03 -11.94428 120.77628 33961 ft 475 kts 296°
2026-05-05 13:04 -11.91220 120.71717 33965 ft 476 kts 296°
2026-05-05 13:04 -11.88002 120.65803 33970 ft 477 kts 296°
2026-05-05 13:05 -11.84776 120.59886 33976 ft 477 kts 296°
2026-05-05 13:05 -11.81566 120.54001 33979 ft 478 kts 296°
2026-05-05 13:06 -11.78332 120.48076 33977 ft 478 kts 296°
2026-05-05 13:06 -11.75097 120.42154 33978 ft 478 kts 296°
2026-05-05 13:07 -11.71861 120.36233 33978 ft 478 kts 296°
2026-05-05 13:07 -11.68645 120.30354 33963 ft 478 kts 296°
2026-05-05 13:08 -11.65406 120.24435 33965 ft 478 kts 296°
2026-05-05 13:08 -11.62164 120.18512 33968 ft 478 kts 296°
2026-05-05 13:09 -11.58919 120.12590 33965 ft 479 kts 296°
2026-05-05 13:09 -11.55693 120.06706 33970 ft 479 kts 296°
2026-05-05 13:10 -11.52443 120.00781 33971 ft 478 kts 296°
2026-05-05 13:10 -11.49196 119.94865 33969 ft 478 kts 296°
2026-05-05 13:11 -11.45946 119.88947 33968 ft 478 kts 296°
2026-05-05 13:11 -11.42719 119.83074 33954 ft 478 kts 296°
2026-05-05 13:12 -11.39465 119.77156 33956 ft 479 kts 296°
2026-05-05 13:12 -11.36209 119.71237 33960 ft 479 kts 296°
2026-05-05 13:13 -11.32948 119.65314 33964 ft 479 kts 296°
2026-05-05 13:13 -11.29706 119.59429 33967 ft 480 kts 296°
2026-05-05 13:14 -11.26439 119.53501 33966 ft 480 kts 296°
2026-05-05 13:14 -11.23172 119.47577 33969 ft 480 kts 296°
2026-05-05 13:15 -11.19907 119.41659 33970 ft 479 kts 296°
2026-05-05 13:15 -11.16661 119.35779 33950 ft 480 kts 296°
2026-05-05 13:16 -11.13389 119.29855 33953 ft 480 kts 296°
2026-05-05 13:16 -11.10113 119.23930 33956 ft 481 kts 296°
2026-05-05 13:17 -11.06831 119.17995 33960 ft 481 kts 296°
2026-05-05 13:17 -11.03543 119.12054 33964 ft 482 kts 296°
2026-05-05 13:18 -11.00272 119.06147 33970 ft 482 kts 296°
2026-05-05 13:18 -10.96978 119.00202 33971 ft 482 kts 296°
2026-05-05 13:19 -10.93681 118.94253 33967 ft 482 kts 297°
2026-05-05 13:19 -10.90386 118.88313 33967 ft 482 kts 297°
2026-05-05 13:20 -10.87108 118.82406 33955 ft 483 kts 297°
2026-05-05 13:20 -10.83804 118.76455 33956 ft 483 kts 297°
2026-05-05 13:21 -10.80495 118.70500 33962 ft 484 kts 297°
2026-05-05 13:21 -10.77185 118.64545 33961 ft 484 kts 297°
2026-05-05 13:22 -10.73887 118.58615 33963 ft 484 kts 297°
2026-05-05 13:22 -10.70569 118.52655 33963 ft 485 kts 297°
2026-05-05 13:23 -10.67249 118.46693 33967 ft 484 kts 297°
2026-05-05 13:23 -10.63928 118.40731 33964 ft 484 kts 297°
2026-05-05 13:24 -10.60628 118.34812 33957 ft 485 kts 297°
2026-05-05 13:24 -10.57305 118.28854 33959 ft 485 kts 297°
2026-05-05 13:25 -10.53978 118.22893 33960 ft 485 kts 297°
2026-05-05 13:25 -10.50648 118.16929 33959 ft 485 kts 297°
2026-05-05 13:26 -10.47341 118.11011 33959 ft 485 kts 297°
2026-05-05 13:26 -10.44009 118.05049 33958 ft 485 kts 297°
2026-05-05 13:27 -10.40679 117.99096 33960 ft 485 kts 297°
2026-05-05 13:27 -10.37343 117.93134 33957 ft 485 kts 297°
2026-05-05 13:28 -10.34034 117.87225 33940 ft 485 kts 297°
2026-05-05 13:28 -10.30696 117.81266 33943 ft 486 kts 297°
2026-05-05 13:29 -10.27355 117.75306 33947 ft 486 kts 297°
2026-05-05 13:29 -10.24007 117.69336 33953 ft 487 kts 297°
2026-05-05 13:30 -10.20678 117.63402 33960 ft 487 kts 297°
2026-05-05 13:30 -10.17325 117.57431 33960 ft 487 kts 298°
2026-05-05 13:31 -10.13968 117.51455 33957 ft 487 kts 298°
2026-05-05 13:31 -10.10612 117.45481 33960 ft 487 kts 298°
2026-05-05 13:32 -10.07278 117.39552 33957 ft 487 kts 298°
2026-05-05 13:32 -10.03924 117.33588 33948 ft 487 kts 298°
2026-05-05 13:33 -10.00472 117.27671 33949 ft 487 kts 299°
2026-05-05 13:33 -9.96960 117.21789 33949 ft 487 kts 299°
2026-05-05 13:34 -9.93487 117.15937 33956 ft 487 kts 299°
2026-05-05 13:34 -9.90000 117.10049 33956 ft 487 kts 299°
2026-05-05 13:35 -9.86512 117.04160 33955 ft 487 kts 299°
2026-05-05 13:35 -9.83024 116.98272 33950 ft 487 kts 299°
2026-05-05 13:36 -9.79562 116.92433 33947 ft 487 kts 299°
2026-05-05 13:36 -9.76074 116.86553 33949 ft 487 kts 299°
2026-05-05 13:37 -9.72586 116.80673 33950 ft 486 kts 299°
2026-05-05 13:37 -9.69117 116.74788 33946 ft 486 kts 299°
2026-05-05 13:38 -9.65671 116.68941 33949 ft 486 kts 299°
2026-05-05 13:38 -9.62202 116.63062 33948 ft 486 kts 299°
2026-05-05 13:39 -9.58728 116.57179 33947 ft 486 kts 299°
2026-05-05 13:39 -9.55257 116.51304 33948 ft 486 kts 299°
2026-05-05 13:40 -9.51785 116.45431 33947 ft 486 kts 299°
2026-05-05 13:40 -9.48335 116.39597 33936 ft 486 kts 299°
2026-05-05 13:41 -9.44861 116.33726 33942 ft 486 kts 299°
2026-05-05 13:41 -9.41384 116.27852 33943 ft 486 kts 299°
2026-05-05 13:42 -9.37926 116.22014 33942 ft 487 kts 299°
2026-05-05 13:42 -9.34443 116.16137 33944 ft 487 kts 299°
2026-05-05 13:43 -9.30956 116.10254 33947 ft 487 kts 299°
2026-05-05 13:43 -9.27466 116.04370 33948 ft 487 kts 299°
2026-05-05 13:44 -9.24000 115.98529 33946 ft 487 kts 299°
2026-05-05 13:44 -9.20511 115.92652 33944 ft 487 kts 300°
2026-05-05 13:45 -9.17014 115.86765 33929 ft 488 kts 299°
2026-05-05 13:45 -9.13509 115.80867 33933 ft 489 kts 299°
2026-05-05 13:46 -9.10023 115.75003 33947 ft 490 kts 300°
2026-05-05 13:46 -9.06506 115.69091 33949 ft 490 kts 300°
2026-05-05 13:47 -9.02988 115.63178 33947 ft 491 kts 300°
2026-05-05 13:47 -8.99467 115.57264 33950 ft 491 kts 300°
2026-05-05 13:48 -8.95965 115.51384 33949 ft 491 kts 300°
2026-05-05 13:48 -8.92440 115.45468 33949 ft 491 kts 300°
2026-05-05 13:49 -8.88914 115.39555 33938 ft 491 kts 300°
2026-05-05 13:49 -8.85382 115.33633 33940 ft 492 kts 300°
2026-05-05 13:50 -8.81871 115.27748 33935 ft 493 kts 300°
2026-05-05 13:50 -8.78329 115.21816 33941 ft 493 kts 300°
2026-05-05 13:51 -8.74784 115.15878 33944 ft 493 kts 300°
2026-05-05 13:51 -8.71329 115.09887 33944 ft 493 kts 298°
2026-05-05 13:52 -8.67934 115.03915 33946 ft 493 kts 299°
2026-05-05 13:52 -8.64502 114.97911 33948 ft 493 kts 299°
2026-05-05 13:53 -8.61062 114.91912 33945 ft 493 kts 299°
2026-05-05 13:53 -8.57618 114.85911 33946 ft 494 kts 299°
2026-05-05 13:54 -8.54172 114.79906 33949 ft 494 kts 299°
2026-05-05 13:54 -8.50745 114.73938 33955 ft 494 kts 299°
2026-05-05 13:55 -8.47294 114.67929 33957 ft 495 kts 299°
2026-05-05 13:55 -8.43840 114.61919 33957 ft 495 kts 299°
2026-05-05 13:56 -8.40409 114.55953 33953 ft 494 kts 299°
2026-05-05 13:56 -8.36955 114.49948 33958 ft 494 kts 299°
2026-05-05 13:57 -8.33501 114.43944 33959 ft 494 kts 299°
2026-05-05 13:57 -8.30044 114.37941 33964 ft 494 kts 299°
2026-05-05 13:58 -8.26611 114.31979 33964 ft 495 kts 299°
2026-05-05 13:58 -8.23149 114.25973 33966 ft 495 kts 299°
2026-05-05 13:59 -8.17946 114.16946 33982 ft 496 kts 299°
2026-05-05 14:00 -8.13324 114.08935 33991 ft 496 kts 299°
2026-05-05 14:00 -8.09284 114.01933 33971 ft 498 kts 300°
2026-05-05 14:01 -8.05791 113.95887 33982 ft 499 kts 300°
2026-05-05 14:01 -8.02289 113.89824 33981 ft 500 kts 300°
2026-05-05 14:02 -7.98795 113.83748 33986 ft 501 kts 300°
2026-05-05 14:02 -7.95329 113.77701 33981 ft 502 kts 300°
2026-05-05 14:03 -7.91833 113.71610 33964 ft 502 kts 300°
2026-05-05 14:03 -7.88332 113.65515 33968 ft 502 kts 300°
2026-05-05 14:04 -7.84831 113.59423 33966 ft 502 kts 300°
2026-05-05 14:04 -7.81354 113.53376 33968 ft 502 kts 300°
2026-05-05 14:05 -7.77854 113.47292 33942 ft 502 kts 300°
2026-05-05 14:05 -7.74353 113.41207 33945 ft 501 kts 300°
2026-05-05 14:06 -7.70856 113.35134 33943 ft 501 kts 300°
2026-05-05 14:06 -7.67384 113.29104 33940 ft 500 kts 300°
2026-05-05 14:07 -7.63886 113.23033 33914 ft 501 kts 300°
2026-05-05 14:07 -7.60383 113.16961 33929 ft 500 kts 301°
2026-05-05 14:08 -7.56890 113.10900 33931 ft 500 kts 301°
2026-05-05 14:08 -7.53423 113.04887 33927 ft 499 kts 301°
2026-05-05 14:09 -7.49933 112.98838 33918 ft 499 kts 301°
2026-05-05 14:09 -7.46443 112.92793 33916 ft 499 kts 301°
2026-05-05 14:10 -7.42954 112.86753 33911 ft 498 kts 301°
2026-05-05 14:10 -7.39470 112.80722 33912 ft 498 kts 301°
2026-05-05 14:11 -7.35884 112.74803 33885 ft 499 kts 304°
2026-05-05 14:11 -7.32067 112.68962 33890 ft 500 kts 303°
2026-05-05 14:12 -7.28253 112.63102 33901 ft 501 kts 303°
2026-05-05 14:12 -7.24425 112.57228 33908 ft 502 kts 303°
2026-05-05 14:13 -7.20619 112.51391 33919 ft 502 kts 303°
2026-05-05 14:13 -7.16780 112.45506 33925 ft 503 kts 303°
2026-05-05 14:14 -7.12934 112.39614 33923 ft 503 kts 303°
2026-05-05 14:14 -7.09114 112.33761 33923 ft 504 kts 303°
2026-05-05 14:15 -7.05266 112.27869 33928 ft 504 kts 303°
2026-05-05 14:15 -7.01419 112.21981 33928 ft 503 kts 304°
2026-05-05 14:16 -6.97572 112.16095 33925 ft 503 kts 304°
2026-05-05 14:16 -6.93756 112.10258 33917 ft 503 kts 304°
2026-05-05 14:17 -6.89916 112.04386 33928 ft 502 kts 304°
2026-05-05 14:17 -6.86078 111.98519 33918 ft 502 kts 304°
2026-05-05 14:18 -6.82243 111.92661 33936 ft 501 kts 304°
2026-05-05 14:18 -6.78437 111.86847 33929 ft 500 kts 304°
2026-05-05 14:19 -6.74609 111.81002 33911 ft 500 kts 304°
2026-05-05 14:19 -6.70775 111.75150 33907 ft 501 kts 304°
2026-05-05 14:20 -6.66946 111.69306 33915 ft 500 kts 304°
2026-05-05 14:20 -6.63142 111.63504 33909 ft 500 kts 304°
2026-05-05 14:21 -6.59353 111.57635 33896 ft 500 kts 303°
2026-05-05 14:21 -6.55663 111.51700 33902 ft 501 kts 302°
2026-05-05 14:22 -6.51958 111.45767 33911 ft 501 kts 303°
2026-05-05 14:22 -6.48267 111.39881 33909 ft 501 kts 303°
2026-05-05 14:23 -6.44548 111.33958 33912 ft 501 kts 303°
2026-05-05 14:23 -6.40826 111.28031 33904 ft 501 kts 303°
2026-05-05 14:24 -6.37100 111.22099 33912 ft 502 kts 303°
2026-05-05 14:24 -6.33402 111.16216 33916 ft 501 kts 303°
2026-05-05 14:25 -6.30379 111.09918 33905 ft 504 kts 287°
2026-05-05 14:25 -6.29523 111.02933 33908 ft 507 kts 270°
2026-05-05 14:26 -6.29585 110.95852 33910 ft 507 kts 271°
2026-05-05 14:26 -6.29613 110.88814 33908 ft 507 kts 271°
2026-05-05 14:27 -6.29644 110.81731 33910 ft 507 kts 271°
2026-05-05 14:27 -6.29677 110.74642 33909 ft 507 kts 271°
2026-05-05 14:28 -6.29710 110.67552 33906 ft 508 kts 271°
2026-05-05 14:28 -6.29741 110.60500 33916 ft 508 kts 271°
2026-05-05 14:29 -6.29772 110.53400 33908 ft 508 kts 271°
2026-05-05 14:29 -6.29802 110.46301 33907 ft 508 kts 271°
2026-05-05 14:30 -6.29830 110.39189 33905 ft 509 kts 271°
2026-05-05 14:30 -6.29856 110.32120 33901 ft 509 kts 271°
2026-05-05 14:31 -6.29878 110.25003 33915 ft 510 kts 271°
2026-05-05 14:31 -6.29899 110.17869 33909 ft 510 kts 271°
2026-05-05 14:32 -6.29920 110.10743 33906 ft 511 kts 271°
2026-05-05 14:32 -6.29940 110.03651 33908 ft 511 kts 271°
2026-05-05 14:33 -6.29959 109.96500 33909 ft 512 kts 271°
2026-05-05 14:33 -6.29976 109.89345 33920 ft 512 kts 271°
2026-05-05 14:34 -6.29990 109.83397 33920 ft 512 kts 271°
2026-05-05 14:34 -6.30009 109.75082 33916 ft 512 kts 271°
2026-05-05 14:35 -6.30024 109.67927 33915 ft 512 kts 271°
2026-05-05 14:35 -6.30039 109.60771 33917 ft 512 kts 271°
2026-05-05 14:36 -6.30050 109.54826 33918 ft 512 kts 271°
2026-05-05 14:36 -6.30064 109.46513 33917 ft 512 kts 271°
2026-05-05 14:37 -6.30074 109.39365 33920 ft 511 kts 271°
2026-05-05 14:37 -6.30083 109.33424 33923 ft 511 kts 271°
2026-05-05 14:38 -6.30106 109.26278 33922 ft 511 kts 270°
2026-05-05 14:38 -6.30145 109.17975 33916 ft 511 kts 270°
2026-05-05 14:39 -6.30169 109.12040 33921 ft 511 kts 270°
2026-05-05 14:39 -6.30197 109.04896 33917 ft 511 kts 270°
2026-05-05 14:40 -6.30224 108.97748 33915 ft 511 kts 270°
2026-05-05 14:40 -6.30250 108.90602 33923 ft 511 kts 270°
2026-05-05 14:41 -6.30275 108.83501 33918 ft 511 kts 270°
2026-05-05 14:41 -6.30298 108.76356 33911 ft 512 kts 270°
2026-05-05 14:42 -6.30321 108.69193 33920 ft 513 kts 270°
2026-05-05 14:42 -6.30343 108.62020 33918 ft 513 kts 270°
2026-05-05 14:43 -6.30364 108.54897 33929 ft 514 kts 270°
2026-05-05 14:43 -6.30384 108.47709 33926 ft 514 kts 270°
2026-05-05 14:44 -6.30403 108.40523 33938 ft 514 kts 271°
2026-05-05 14:44 -6.30061 108.33367 33931 ft 512 kts 279°
2026-05-05 14:45 -6.28449 108.26409 33931 ft 511 kts 286°
2026-05-05 14:45 -6.26648 108.19546 33932 ft 511 kts 285°
2026-05-05 14:46 -6.24844 108.12634 33930 ft 511 kts 285°
2026-05-05 14:46 -6.23035 108.05729 33926 ft 511 kts 285°
2026-05-05 14:47 -6.21222 107.98821 33927 ft 511 kts 285°
2026-05-05 14:47 -6.19421 107.91964 33927 ft 511 kts 285°
2026-05-05 14:48 -6.17607 107.85058 33922 ft 511 kts 285°
2026-05-05 14:48 -6.15793 107.78156 33925 ft 511 kts 286°
2026-05-05 14:49 -6.13976 107.71250 33908 ft 512 kts 286°
2026-05-05 14:49 -6.12170 107.64387 33909 ft 512 kts 286°
2026-05-05 14:50 -6.10347 107.57465 33913 ft 513 kts 286°
2026-05-05 14:50 -6.08521 107.50533 33919 ft 513 kts 286°
2026-05-05 14:51 -6.06695 107.43606 33923 ft 513 kts 286°
2026-05-05 14:51 -6.04878 107.36716 33927 ft 514 kts 286°
2026-05-05 14:52 -6.03046 107.29774 33920 ft 514 kts 286°
2026-05-05 14:52 -6.01213 107.22831 33921 ft 514 kts 286°
2026-05-05 14:53 -5.99378 107.15887 33931 ft 514 kts 286°
2026-05-05 14:53 -5.97557 107.08996 33923 ft 514 kts 286°
2026-05-05 14:54 -5.95580 107.02093 33909 ft 513 kts 292°
2026-05-05 14:54 -5.93006 106.95409 33912 ft 514 kts 292°
2026-05-05 14:55 -5.90471 106.88747 33914 ft 514 kts 292°
2026-05-05 14:55 -5.87919 106.82041 33921 ft 515 kts 292°
2026-05-05 14:56 -5.85358 106.75325 33912 ft 515 kts 292°
2026-05-05 14:56 -5.82796 106.68614 33913 ft 515 kts 292°
2026-05-05 14:57 -5.80230 106.61890 33902 ft 516 kts 292°
2026-05-05 14:57 -5.77680 106.55212 33913 ft 516 kts 292°
2026-05-05 14:58 -5.75110 106.48482 33910 ft 516 kts 292°
2026-05-05 14:58 -5.72540 106.41758 33912 ft 516 kts 292°
2026-05-05 14:59 -5.69983 106.35069 33916 ft 516 kts 292°
2026-05-05 14:59 -5.67410 106.28341 33909 ft 517 kts 292°
2026-05-05 15:00 -5.65269 106.22747 33910 ft 517 kts 292°
2026-05-05 15:00 -5.62256 106.14875 33916 ft 517 kts 291°
2026-05-05 15:01 -5.59698 106.08194 33917 ft 517 kts 292°
2026-05-05 15:01 -5.57117 106.01458 33920 ft 517 kts 292°
2026-05-05 15:02 -5.54539 105.94728 33925 ft 516 kts 291°
2026-05-05 15:02 -5.51961 105.88002 33914 ft 516 kts 291°
2026-05-05 15:03 -5.49383 105.81279 33921 ft 516 kts 292°
2026-05-05 15:03 -5.46823 105.74607 33913 ft 516 kts 292°
2026-05-05 15:04 -5.44246 105.67892 33910 ft 515 kts 292°
2026-05-05 15:04 -5.41674 105.61186 33909 ft 515 kts 291°
2026-05-05 15:05 -5.37921 105.51142 33899 ft 515 kts 291°
2026-05-05 15:06 -5.35409 105.44423 33899 ft 514 kts 291°
2026-05-05 15:06 -5.32892 105.37707 33904 ft 514 kts 291°
2026-05-05 15:07 -5.30373 105.30988 33906 ft 514 kts 291°
2026-05-05 15:07 -5.27872 105.24324 33899 ft 515 kts 291°
2026-05-05 15:08 -5.25210 105.17665 33899 ft 514 kts 296°
2026-05-05 15:08 -5.22081 105.11210 33899 ft 514 kts 296°
2026-05-05 15:09 -5.18975 105.04741 33900 ft 515 kts 296°
2026-05-05 15:09 -5.15889 104.98316 33892 ft 515 kts 296°
2026-05-05 15:10 -5.12779 104.91847 33915 ft 515 kts 296°
2026-05-05 15:10 -5.09671 104.85386 33927 ft 514 kts 296°
2026-05-05 15:11 -5.06560 104.78922 33919 ft 514 kts 296°
2026-05-05 15:11 -5.03473 104.72510 33924 ft 514 kts 296°
2026-05-05 15:12 -5.00364 104.66052 33918 ft 514 kts 296°
2026-05-05 15:12 -4.97254 104.59595 33927 ft 514 kts 296°
2026-05-05 15:13 -4.94145 104.53143 33929 ft 514 kts 296°
2026-05-05 15:13 -4.91056 104.46732 33941 ft 514 kts 296°
2026-05-05 15:14 -4.87909 104.40301 33939 ft 514 kts 297°
2026-05-05 15:14 -4.84750 104.33878 33941 ft 514 kts 297°
2026-05-05 15:15 -4.81597 104.27454 33942 ft 513 kts 297°
2026-05-05 15:15 -4.78467 104.21071 33952 ft 513 kts 297°
2026-05-05 15:16 -4.75315 104.14648 33940 ft 514 kts 297°
2026-05-05 15:16 -4.72161 104.08223 33930 ft 514 kts 297°
2026-05-05 15:17 -4.69026 104.01838 33956 ft 517 kts 297°
2026-05-05 15:17 -4.67437 103.98602 34386 ft 516 kts 297°
2026-05-05 15:17 -4.65857 103.95385 34953 ft 513 kts 297°
2026-05-05 15:17 -4.64286 103.92186 35489 ft 510 kts 297°
2026-05-05 15:18 -4.62722 103.89003 35856 ft 508 kts 297°
2026-05-05 15:18 -4.59609 103.82668 35953 ft 507 kts 297°
2026-05-05 15:19 -4.56511 103.76364 35971 ft 508 kts 297°
2026-05-05 15:19 -4.53391 103.70017 35971 ft 508 kts 297°
2026-05-05 15:20 -4.50269 103.63670 35981 ft 508 kts 297°
2026-05-05 15:20 -4.47149 103.57328 35978 ft 507 kts 297°
2026-05-05 15:21 -4.44051 103.51032 35983 ft 507 kts 297°
2026-05-05 15:21 -4.40933 103.44696 35989 ft 507 kts 297°
2026-05-05 15:22 -4.37814 103.38361 35980 ft 507 kts 297°
2026-05-05 15:22 -4.34698 103.32034 35971 ft 506 kts 297°
2026-05-05 15:23 -4.31603 103.25749 35974 ft 506 kts 297°
2026-05-05 15:23 -4.28488 103.19425 35972 ft 506 kts 297°
2026-05-05 15:24 -4.25369 103.13097 35974 ft 507 kts 297°
2026-05-05 15:24 -4.22271 103.06811 35984 ft 506 kts 297°
2026-05-05 15:25 -4.19155 103.00490 35963 ft 506 kts 297°
2026-05-05 15:25 -4.16040 102.94174 35972 ft 506 kts 297°
2026-05-05 15:26 -4.12926 102.87861 35958 ft 505 kts 297°
2026-05-05 15:26 -4.09833 102.81591 35956 ft 505 kts 297°
2026-05-05 15:27 -4.06715 102.75274 35929 ft 506 kts 296°
2026-05-05 15:27 -4.03595 102.68953 35931 ft 506 kts 296°
2026-05-05 15:28 -4.00473 102.62629 35949 ft 507 kts 296°
2026-05-05 15:28 -3.97367 102.56340 35942 ft 507 kts 296°
2026-05-05 15:29 -3.94238 102.50005 35944 ft 507 kts 296°
2026-05-05 15:29 -3.91106 102.43666 35928 ft 508 kts 296°
2026-05-05 15:30 -3.87977 102.37335 35939 ft 507 kts 296°
2026-05-05 15:30 -3.84872 102.31055 35930 ft 506 kts 296°
2026-05-05 15:31 -3.81741 102.24742 35931 ft 506 kts 296°
2026-05-05 15:31 -3.78612 102.18434 35927 ft 505 kts 296°
2026-05-05 15:32 -3.75486 102.12131 35922 ft 505 kts 296°
2026-05-05 15:32 -3.72383 102.05874 35925 ft 505 kts 296°
2026-05-05 15:33 -3.69258 101.99576 35916 ft 505 kts 296°
2026-05-05 15:33 -3.66137 101.93287 35914 ft 505 kts 296°
2026-05-05 15:34 -3.63014 101.86994 35912 ft 504 kts 296°
2026-05-05 15:34 -3.59912 101.80747 35910 ft 505 kts 296°
2026-05-05 15:35 -3.56788 101.74454 35908 ft 505 kts 296°
2026-05-05 15:35 -3.53662 101.68162 35912 ft 505 kts 296°
2026-05-05 15:36 -3.50536 101.61868 35910 ft 505 kts 296°
2026-05-05 15:36 -3.47426 101.55609 35913 ft 506 kts 296°
2026-05-05 15:37 -3.44292 101.49302 35916 ft 506 kts 296°
2026-05-05 15:37 -3.41156 101.42993 35914 ft 506 kts 296°
2026-05-05 15:38 -3.38020 101.36685 35919 ft 506 kts 296°
2026-05-05 15:38 -3.34906 101.30423 35922 ft 506 kts 296°
2026-05-05 15:39 -3.31766 101.24109 35916 ft 506 kts 296°
2026-05-05 15:39 -3.28628 101.17801 35914 ft 507 kts 296°
2026-05-05 15:40 -3.25487 101.11489 35913 ft 507 kts 296°
2026-05-05 15:40 -3.22367 101.05218 35915 ft 507 kts 296°
2026-05-05 15:41 -3.19226 100.98907 35916 ft 507 kts 296°
2026-05-05 15:41 -3.16085 100.92599 35915 ft 507 kts 296°
2026-05-05 15:42 -3.12944 100.86289 35911 ft 507 kts 296°
2026-05-05 15:42 -3.09821 100.80019 35912 ft 506 kts 296°
2026-05-05 15:43 -3.06681 100.73715 35915 ft 506 kts 296°
2026-05-05 15:43 -3.03539 100.67406 35914 ft 506 kts 296°
2026-05-05 15:44 -3.00396 100.61100 35911 ft 506 kts 296°
2026-05-05 15:44 -2.97257 100.54801 35917 ft 506 kts 297°
2026-05-05 15:45 -2.94139 100.48545 35910 ft 506 kts 297°
2026-05-05 15:45 -2.90998 100.42245 35914 ft 506 kts 297°
2026-05-05 15:46 -2.87860 100.35950 35917 ft 506 kts 297°
2026-05-05 15:46 -2.84738 100.29691 35913 ft 506 kts 297°
2026-05-05 15:47 -2.81599 100.23396 35916 ft 506 kts 297°
2026-05-05 15:47 -2.78455 100.17093 35908 ft 506 kts 297°
2026-05-05 15:48 -2.75309 100.10789 35907 ft 507 kts 297°
2026-05-05 15:48 -2.72182 100.04521 35915 ft 507 kts 297°
2026-05-05 15:49 -2.69028 99.98202 35916 ft 508 kts 297°
2026-05-05 15:49 -2.65874 99.91883 35919 ft 508 kts 297°
2026-05-05 15:50 -2.62717 99.85560 35916 ft 508 kts 297°
2026-05-05 15:50 -2.59582 99.79280 35901 ft 509 kts 297°
2026-05-05 15:51 -2.56417 99.72944 35905 ft 509 kts 297°
2026-05-05 15:51 -2.53253 99.66608 35912 ft 510 kts 297°
2026-05-05 15:52 -2.50081 99.60258 35915 ft 510 kts 297°
2026-05-05 15:52 -2.46938 99.53952 35916 ft 510 kts 296°
2026-05-05 15:53 -2.43909 99.47534 35916 ft 510 kts 295°
2026-05-05 15:53 -2.40902 99.41107 35922 ft 510 kts 295°
2026-05-05 15:54 -2.37878 99.34694 35920 ft 509 kts 296°
2026-05-05 15:54 -2.34875 99.28338 35915 ft 509 kts 296°
2026-05-05 15:55 -2.31850 99.21937 35914 ft 509 kts 296°
2026-05-05 15:55 -2.28828 99.15543 35912 ft 508 kts 296°
2026-05-05 15:56 -2.25807 99.09154 35907 ft 508 kts 296°
2026-05-05 15:56 -2.22805 99.02804 35900 ft 509 kts 295°
2026-05-05 15:57 -2.19779 98.96404 35903 ft 509 kts 295°
2026-05-05 15:57 -2.16752 98.90003 35906 ft 509 kts 295°
2026-05-05 15:58 -2.13724 98.83601 35909 ft 510 kts 295°
2026-05-05 15:58 -2.10711 98.77231 35918 ft 510 kts 295°
2026-05-05 15:59 -2.07678 98.70821 35925 ft 510 kts 295°
2026-05-05 15:59 -2.04648 98.64416 35934 ft 509 kts 295°